Overview Statistics Trail Chart Weather Telemetry Raw packets
 

This is the latest recevied weather packets stored in our database for station/object WE1C. If no packets are shown the sender has not sent any weather packets the latest 10 day(s).

<< 1 2 3 4 >>
Time Temp. Humidity Pressure Rain* Wind** Luminosity Snow
1788621563 21.11° C 76% 1039 hPa 0 mm - 421 W/m² -
1788621259 20.56° C 76% 1039.2 hPa 0 mm - 339 W/m² -
1788620958 20.56° C 76% 1039.1 hPa 0 mm - 322 W/m² -
1788620653 20° C 78% 1039.3 hPa 0 mm - 329 W/m² -
1788620349 20° C 78% 1039.2 hPa 0 mm - 210 W/m² -
1788620044 20.56° C 77% 1039 hPa 0 mm - 178 W/m² -
1788619744 20.56° C 77% 1039 hPa 0 mm - 193 W/m² -
1788619439 20.56° C 79% 1039.2 hPa 0 mm - 249 W/m² -
1788619138 20.56° C 76% 1039.1 hPa 0 mm - 326 W/m² -
1788618832 20.56° C 77% 1039 hPa 0 mm - 236 W/m² -
1788618532 20.56° C 76% 1039 hPa 0 mm - 278 W/m² -
1788618230 20° C 80% 1039.1 hPa 0 mm - 357 W/m² -
1788617927 20° C 78% 1039.1 hPa 0 mm - 252 W/m² -
1788617622 20.56° C 77% 1039.1 hPa 0 mm - 181 W/m² -
1788617318 20.56° C 78% 1039.1 hPa 0 mm - 255 W/m² -
1788617018 20.56° C 79% 1039 hPa 0 mm - 376 W/m² -
1788616716 20° C 79% 1039 hPa 0 mm - 364 W/m² -
1788616412 20° C 79% 1038.9 hPa 0 mm - 399 W/m² -
1788616108 20° C 80% 1039.3 hPa 0 mm - 201 W/m² -
1788615806 20° C 81% 1039.2 hPa 0 mm - 174 W/m² -
1788615501 20° C 81% 1039.3 hPa 0 mm - 205 W/m² -
1788615197 20° C 80% 1039.3 hPa 0 mm - 162 W/m² -
1788614895 20° C 81% 1039 hPa 0 mm - 242 W/m² -
1788614591 19.44° C 81% 1039 hPa 0 mm - 277 W/m² -
1788614290 19.44° C 80% 1038.9 hPa 0 mm - 150 W/m² -

* Rain latest hour (hover to see other rain measurements)
** Current wind speed in m/s (hover to see current wind gust speed)